Weather History for KPVU - August, 2013

Change the Weather History Date:

Thursday, August 1, 2013

  Actual Average Record
Temperature  
Mean Temperature 78 °F -  
Max Temperature 93 °F 88 °F 98 °F (1992)
Min Temperature 62 °F 59 °F 53 °F (1999)
Cooling Degree Days 12    
Growing Degree Days 28 (Base 50)    
Moisture  
Dew Point 50 °F    
Average Humidity 41    
Maximum Humidity 52    
Minimum Humidity 24    
Precipitation  
Precipitation 0.00 in - - ()
Sea Level Pressure  
Sea Level Pressure 30.02 in    
Wind  
Wind Speed 9 mph (SE)    
Max Wind Speed 23 mph    
Max Gust Speed 38 mph    
Visibility 12 miles    
Events      
Averages and records for this station are not official NWS values.
T = Trace of Precipitation, MM = Missing Value Source: NWS Daily Summary

Daily Weather History Graph

Daily Weather History Graph

Search for Another Location

Airport or City:

Trip Planner

Search our weather history database for the weather conditions in past years. The results will help you decide how hot, cold, wet, or windy it might be!

Date:

Astronomy

Aug. 01, 2013 Rise Set
Actual Time 6:25 AM MDT 8:40 PM MDT
Civil Twilight 5:54 AM MDT 9:11 PM MDT
Nautical Twilight 5:17 AM MDT 9:48 PM MDT
Astronomical Twilight 4:35 AM MDT 10:29 PM MDT
Moon 2:03 AM MDT (8/1) 4:52 PM MDT (8/1)
Length of Visible Light 15h 16m
Length of Day
14h 15m
Waning Crescent, 23% of the Moon is Illuminated
Aug 1
Waning Crescent
Aug 6
New
Aug 14
First Quarter
Aug 20
Full
Aug 28
Last Quarter

Hourly Weather History & Observations

Time (MDT) Temp. Heat Index Dew Point Humidity Pressure Visibility Wind Dir Wind Speed Gust Speed Precip Events Conditions
12:15 AM 71.6 °F - 50.0 °F 46% 30.07 in 10.0 mi ESE 8.1 mph - N/A   Clear
12:35 AM 71.6 °F - 48.2 °F 43% 30.07 in 10.0 mi SE 5.8 mph - N/A   Clear
12:55 AM 69.8 °F - 48.2 °F 46% 30.07 in 10.0 mi ESE 4.6 mph - N/A   Clear
1:15 AM 73.4 °F - 48.2 °F 41% 30.07 in 10.0 mi SE 6.9 mph - N/A   Clear
1:35 AM 73.4 °F - 46.4 °F 38% 30.07 in 10.0 mi SSE 4.6 mph - N/A   Clear
1:55 AM 71.6 °F - 48.2 °F 43% 30.06 in 10.0 mi SE 10.4 mph - N/A   Partly Cloudy
2:15 AM 73.4 °F - 46.4 °F 38% 30.07 in 10.0 mi SE 11.5 mph - N/A   Clear
2:35 AM 69.8 °F - 46.4 °F 43% 30.07 in 10.0 mi East 6.9 mph - N/A   Clear
2:55 AM 68.0 °F - 44.6 °F 43% 30.07 in 10.0 mi East 5.8 mph - N/A   Clear
3:15 AM 68.0 °F - 42.8 °F 40% 30.07 in 10.0 mi ESE 9.2 mph - N/A   Clear
3:35 AM 69.8 °F - 44.6 °F 40% 30.07 in 10.0 mi SE 6.9 mph - N/A   Clear
3:55 AM 68.0 °F - 46.4 °F 46% 30.07 in 10.0 mi SE 10.4 mph - N/A   Clear
4:15 AM 68.0 °F - 46.4 °F 46% 30.06 in 10.0 mi SE 10.4 mph - N/A   Clear
4:55 AM 66.2 °F - 46.4 °F 49% 30.07 in 10.0 mi ESE 8.1 mph - N/A   Clear
5:15 AM 66.2 °F - 44.6 °F 46% 30.07 in 10.0 mi SSE 9.2 mph - N/A   Clear
5:35 AM 66.2 °F - 46.4 °F 49% 30.07 in 10.0 mi East 5.8 mph - N/A   Clear
5:55 AM 64.4 °F - 44.6 °F 49% 30.07 in 10.0 mi Calm Calm - N/A   Clear
6:15 AM 66.2 °F - 42.8 °F 43% 30.08 in 9.0 mi SE 5.8 mph - N/A   Clear
6:35 AM 62.6 °F - 44.6 °F 52% 30.08 in 10.0 mi NE 3.5 mph - N/A   Clear
6:47 AM 62.6 °F - 42.8 °F 48% 30.09 in 15.0 mi Calm Calm - N/A   Scattered Clouds
7:49 AM 69.8 °F - 44.6 °F 40% 30.09 in 15.0 mi ESE 5.8 mph - N/A   Scattered Clouds
8:47 AM 69.8 °F - 48.2 °F 46% 30.09 in 15.0 mi Calm Calm - N/A   Scattered Clouds
9:47 AM 80.6 °F - 50.0 °F 34% 30.09 in 15.0 mi ESE 4.6 mph - N/A   Scattered Clouds
10:59 AM 87.8 °F - 50.0 °F 27% 30.07 in 15.0 mi ESE 8.1 mph - N/A   Mostly Cloudy
11:55 AM 87.8 °F - 50.0 °F 27% 30.05 in 15.0 mi SW 5.8 mph - N/A   Mostly Cloudy
12:55 PM 89.6 °F 87.3 °F 53.6 °F 29% 30.02 in 15.0 mi SSE 9.2 mph - N/A   Mostly Cloudy
1:50 PM 91.4 °F 89.4 °F 55.4 °F 29% 29.99 in 15.0 mi SSW 11.5 mph - N/A   Mostly Cloudy
2:50 PM 93.2 °F - 51.8 °F 24% 29.96 in 15.0 mi South 11.5 mph - N/A   Mostly Cloudy
3:50 PM 91.4 °F 89.4 °F 55.4 °F 29% 29.94 in 15.0 mi SSW 12.7 mph - N/A   Mostly Cloudy
4:47 PM 89.6 °F 87.7 °F 55.4 °F 31% 29.90 in 15.0 mi ESE 17.3 mph 31.1 mph N/A   Mostly Cloudy
5:50 PM 89.6 °F 87.7 °F 55.4 °F 31% 29.89 in 15.0 mi SE 20.7 mph 34.5 mph N/A   Mostly Cloudy
7:48 PM 82.4 °F 81.7 °F 55.4 °F 39% 29.89 in 15.0 mi SE 13.8 mph - N/A   Scattered Clouds
8:47 PM 80.6 °F 80.3 °F 53.6 °F 39% 29.89 in 15.0 mi ESE 23.0 mph 38.0 mph N/A   Partly Cloudy
9:15 PM 80.6 °F 80.3 °F 53.6 °F 39% 29.90 in 10.0 mi SE 18.4 mph 27.6 mph N/A   Clear
9:35 PM 78.8 °F - 53.6 °F 42% 29.91 in 10.0 mi SE 23.0 mph - N/A   Clear
9:55 PM 78.8 °F - 53.6 °F 42% 29.92 in 10.0 mi SE 19.6 mph - N/A   Clear
10:15 PM 78.8 °F - 53.6 °F 42% 29.93 in 10.0 mi SSE 19.6 mph - N/A   Clear
10:35 PM 77.0 °F - 53.6 °F 44% 29.93 in 10.0 mi SSE 18.4 mph - N/A   Clear
10:55 PM 77.0 °F - 53.6 °F 44% 29.94 in 10.0 mi SSE 16.1 mph - N/A   Clear
11:15 PM 75.2 °F - 55.4 °F 50% 29.93 in 10.0 mi SE 19.6 mph 24.2 mph N/A   Clear
11:35 PM 75.2 °F - 53.6 °F 47% 29.94 in 10.0 mi SSE 16.1 mph - N/A   Clear
11:55 PM 75.2 °F - 53.6 °F 47% 29.94 in 10.0 mi SSE 17.3 mph - N/A   Clear